DMSP 5D-2 F13 DEB

Satellite information

Favourite Embed

Satellite Type and Status

DEBRISIN ORBIT

Key statistics

Satellite DMSP 5D-2 F13 DEB at a glance.

Uptime

11003

Days in orbit

Revolutions

≈ 14.4

Per day

Orbit

SSO

Sun Synchronous Orbit

Inclination

98.7

Latest

Satellite identification and parameters

Extended collection of information and parameters for DMSP 5D-2 F13 DEB.

Object identification

Identified? True

Debris? True

Object name: DMSP 5D-2 F13 DEB

International designator: 1995-015DM

Object number (NORAD): 40525

Object ID (CCSDS): 40525

Country: UNITED STATES OF AMERICA (US)

Current information (Y/N): Y

RCS size: SMALL

Orbital parameters

Period: 100.338 minutes

Inclination: 98.6898 deg

SMA: 7152.721 km

Apoapsis: 783.226 km

Periapsis: 765.947 km

RAAN: 159.8039 deg

Eccentricy: 0.0012078

Argument of periapsis: 34.7231 deg

Mean anomaly: 325.474 deg

Mean motion: 14.35145023 rev/day

Mean motion (dot): 0.00006575 rev/day2

B* drag term: 0.002314 1/REarth

Two-line elements (TLE)

Creation date: May 6, 2025, 6:46 a.m.

Reference frame: TEME

Reference center: EARTH

Epoch: May 6, 2025, 1:23 a.m. UTC

TLE line 0: 0 DMSP 5D-2 F13 DEB

TLE line 1: 1 40525U 95015DM 25126.05775768 .00006575 00000-0 23140-2 0 9992

TLE line 2: 2 40525 98.6898 159.8039 0012078 34.7231 325.4740 14.35145023527433

Live tracking on map

Real-time ground track for satellite DMSP 5D-2 F13 DEB.

In-orbit conjunctions

A list of the most updated potential collisions computed for object DMSP 5D-2 F13 DEB.

Target Orbit TCA Probability of collision Miss distance Type
COSMOS 1269 LEO 2025-01-18 22:46:39 0.0001128363 491.0 (m) PAYLOAD

Associated space launch

Military meteorological satellite

DMSP 5D-2 F13 DEB was lifted into orbit during the mission ‘Atlas E | DMSP-5D2 F13’, on board a Atlas E space rocket.

The launch took place on March 24, 1995, 2:05 p.m. from Space Launch Complex 3W.

For more information about the launch, click the button.

Launch to space Atlas E | DMSP-5D2 F13
Atlas E | DMSP-5D2 F13

Agency: N/A

Status: Launch Successful

Launch date: March 24, 1995, 2:05 p.m. UTC

Rocket: Atlas E

Launch pad: Space Launch Complex 3W

Location: Vandenberg SFB, CA, USA

...

Latest news about this satellite

There are no fresh news available about this satellite. Check back as we update our databases every day.


Newsletter sign-up

Weekly statistics, charts and insights to help you stay on top of the space industry.